Location: Dana
(41.8364°N, 106.7042°W)
Time: 01:18:47
(UTC+00:00)

Transit 4A - Pass Details

Date: 13 May 2026
Orbit: 860 x 980 km, 66.8° (Epoch: 6 June)

Event Time Altitude Azimuth Distance (km) Brightness Sun altitude
Rises 00:09:59 0° 331° (NNW) 3,686 11.5 21.9°
Reaches altitude 10° 00:12:35 10° 335° (NNW) 2,739 10.9 21.4°
Maximum altitude 00:18:59 65° 57° (ENE) 1,069 8.4 20.2°
Drops below altitude 10° 00:25:17 10° 139° (SE) 2,702 10.0 19.0°
Sets 00:27:50 0° 142° (SE) 3,633 10.6 18.6°
